Ballenas Island, British Columbia

9:25 PM PST on November 18, 2017 (GMT -0800)
Ballenas Island

Weather History for CWGB - September, 2013

Change the Weather History Date:

Friday, September 27, 2013

  Actual Average Record
Temperature  
Mean Temperature 54 °F -  
Max Temperature 57 °F - - ()
Min Temperature 51 °F - - ()
Degree Days  
Heating Degree Days 11    
Growing Degree Days 4 (Base 50)    
Moisture  
Dew Point 50 °F    
Average Humidity 87    
Maximum Humidity 92    
Minimum Humidity 79    
Precipitation  
Precipitation 0.35 in - - ()
Sea Level Pressure  
Sea Level Pressure 29.91 in    
Wind  
Wind Speed 16 mph ()    
Max Wind Speed 25 mph    
Max Gust Speed 28 mph    
T = Trace of Precipitation, MM = Missing Value Source: Averaged Metar Reports

Daily Weather History Graph

Daily Weather History Graph

Search for Another Location

Airport or City:

Trip Planner

Search our weather history database for the weather conditions in past years. The results will help you decide how hot, cold, wet, or windy it might be!

Date:

Astronomy

Sep. 27, 2013 Rise Set
Actual Time 7:11 AM PDT 7:03 PM PDT
Civil Twilight 6:39 AM PDT 7:34 PM PDT
Nautical Twilight 6:02 AM PDT 8:11 PM PDT
Astronomical Twilight 5:23 AM PDT 8:49 PM PDT
Moon No Moon Rise 3:13 PM PDT (9/27)
Length of Visible Light 12h 55m
Length of Day
11h 52m
Last Quarter, 44% of the Moon is Illuminated
Sep 27
Last Quarter
Oct 4
New
Oct 11
First Quarter
Oct 18
Full
Oct 26
Last Quarter

Hourly Weather History & Observations

Time (PDT) Temp. Dew Point Humidity Pressure Visibility Wind Dir Wind Speed Gust Speed Precip Events Conditions
12:00 AM 56.8 °F 52.3 °F 85% 30.03 in - ESE 20.7 mph - N/A   Unknown
1:00 AM 56.3 °F 51.8 °F 85% 30.03 in - ESE 17.3 mph - N/A   Unknown
2:00 AM 55.9 °F 50.9 °F 83% 30.03 in - ESE 15.0 mph - N/A   Unknown
3:00 AM 55.4 °F 51.3 °F 86% 30.01 in - East 15.0 mph - 0.01 in   Unknown
4:00 AM 54.9 °F 51.3 °F 88% 29.99 in - ESE 16.1 mph 21.9 mph 0.03 in   Unknown
5:00 AM 54 °F 49 °F 79% 29.99 in - ESE 12.7 mph - -  
5:00 AM 54.0 °F 49.3 °F 84% 29.99 in - ESE 12.7 mph - 0.07 in   Unknown
6:00 AM 53.1 °F 48.0 °F 83% 29.99 in - ESE 15.0 mph - 0.13 in   Unknown
7:00 AM 51.4 °F 46.9 °F 85% 29.97 in - ESE 12.7 mph - 0.10 in   Unknown
8:00 AM 53.4 °F 47.8 °F 81% 29.95 in - ESE 20.7 mph - N/A   Unknown
9:00 AM 52.2 °F 48.9 °F 89% 29.95 in - ESE 20.7 mph 27.6 mph 0.03 in   Unknown
10:00 AM 51.6 °F 48.4 °F 89% 29.94 in - ESE 25.3 mph - 0.05 in   Unknown
11:00 AM 52 °F 49 °F 85% 29.93 in - ESE 24.2 mph - -  
11:00 AM 51.8 °F 48.7 °F 89% 29.93 in - ESE 24.2 mph - 0.04 in   Unknown
12:00 PM 51.6 °F 48.2 °F 88% 29.92 in - ESE 23.0 mph - 0.02 in   Unknown
1:00 PM 52.0 °F 48.4 °F 88% 29.91 in - ESE 19.6 mph - 0.01 in   Unknown
2:00 PM 52.7 °F 48.7 °F 86% 29.89 in - ESE 18.4 mph - N/A   Unknown
3:00 PM 52.3 °F 48.6 °F 87% 29.88 in - ESE 17.3 mph - N/A   Unknown
4:00 PM 52.9 °F 50.0 °F 90% 29.86 in - ESE 18.4 mph - N/A   Unknown
5:00 PM 53 °F 50 °F 87% 29.85 in - ESE 19.6 mph - -  
5:00 PM 53.1 °F 50.4 °F 91% 29.85 in - ESE 19.6 mph - N/A   Unknown
6:00 PM 53.6 °F 51.1 °F 91% 29.83 in - ESE 18.4 mph - N/A   Unknown
7:00 PM 54.0 °F 51.6 °F 92% 29.81 in - ESE 16.1 mph - N/A   Unknown
8:00 PM 54.0 °F 50.7 °F 89% 29.80 in - ESE 16.1 mph - N/A   Unknown
9:00 PM 54.0 °F 51.4 °F 91% 29.79 in - ESE 12.7 mph - N/A   Unknown
10:00 PM 53.8 °F 51.3 °F 91% 29.78 in - SE 8.1 mph - N/A   Unknown
11:00 PM 54 °F 51 °F 88% 29.76 in - ESE 9.2 mph - -  
11:00 PM 53.8 °F 51.4 °F 92% 29.76 in - ESE 9.2 mph - N/A   Unknown